Twentynine Palms, CA

5:51 AM PDT on May 24, 2017 (GMT -0700)
Twentynine Palms Expeditionary Air Field

Weather History for KNXP - September, 2013

Change the Weather History Date:

Monday, September 30, 2013

  Actual Average Record
Temperature  
Mean Temperature 75 °F -  
Max Temperature 91 °F 88 °F 100 °F (2003)
Min Temperature 59 °F 61 °F 53 °F (2007)
Cooling Degree Days 10    
Growing Degree Days 25 (Base 50)    
Moisture  
Dew Point 24 °F    
Average Humidity 16    
Maximum Humidity 26    
Minimum Humidity 7    
Precipitation  
Precipitation 0.00 in - - ()
Sea Level Pressure  
Sea Level Pressure 29.90 in    
Wind  
Wind Speed 8 mph (WNW)    
Max Wind Speed 14 mph    
Max Gust Speed 18 mph    
Visibility 10 miles    
Events      
Averages and records for this station are not official NWS values.
T = Trace of Precipitation, MM = Missing Value Source: NWS Daily Summary

Daily Weather History Graph

Daily Weather History Graph

Search for Another Location

Airport or City:

Trip Planner

Search our weather history database for the weather conditions in past years. The results will help you decide how hot, cold, wet, or windy it might be!

Date:

Astronomy

Sep. 30, 2013 Rise Set
Actual Time 6:38 AM PDT 6:29 PM PDT
Civil Twilight 6:13 AM PDT 6:54 PM PDT
Nautical Twilight 5:44 AM PDT 7:23 PM PDT
Astronomical Twilight 5:15 AM PDT 7:53 PM PDT
Moon 2:29 AM PDT (9/30) 3:54 PM PDT (9/30)
Length of Visible Light 12h 41m
Length of Day
11h 51m
Waning Crescent, 18% of the Moon is Illuminated
Sep 30
Waning Crescent
Oct 4
New
Oct 11
First Quarter
Oct 18
Full
Oct 26
Last Quarter

Hourly Weather History & Observations

Time (PDT) Temp. Dew Point Humidity Pressure Visibility Wind Dir Wind Speed Gust Speed Precip Events Conditions
12:56 AM 71.1 °F 23.0 °F 16% 29.96 in 10.0 mi WNW 9.2 mph - N/A   Clear
1:56 AM 66.9 °F 21.9 °F 18% 29.96 in 10.0 mi West 13.8 mph - N/A   Clear
2:56 AM 68.0 °F 21.9 °F 17% 29.94 in 10.0 mi West 9.2 mph - N/A   Clear
3:56 AM 64.0 °F 21.0 °F 19% 29.94 in 10.0 mi West 10.4 mph - N/A   Clear
4:56 AM 59.0 °F 21.9 °F 24% 29.94 in 10.0 mi NNW 4.6 mph - N/A   Clear
5:56 AM 59.0 °F 21.9 °F 24% 29.96 in 10.0 mi Calm Calm - N/A   Clear
6:56 AM 59.0 °F 24.1 °F 26% 29.97 in 9.0 mi NNW 5.8 mph - N/A   Clear
7:56 AM 64.0 °F 25.0 °F 23% 29.98 in 10.0 mi NNW 6.9 mph - N/A   Clear
8:56 AM 70.0 °F 27.0 °F 20% 29.98 in 10.0 mi Calm Calm - N/A   Clear
9:56 AM 77.0 °F 28.9 °F 17% 29.97 in 10.0 mi NNW 5.8 mph - N/A   Clear
10:56 AM 82.0 °F 28.9 °F 14% 29.96 in 10.0 mi North 10.4 mph - N/A   Clear
11:56 AM 84.9 °F 26.1 °F 12% 29.94 in 10.0 mi WNW 11.5 mph 18.4 mph N/A   Clear
12:56 PM 87.1 °F 21.0 °F 9% 29.91 in 10.0 mi Variable 4.6 mph - N/A   Clear
1:56 PM 89.1 °F 19.0 °F 8% 29.88 in 10.0 mi Calm Calm - N/A   Clear
2:56 PM 90.0 °F 19.0 °F 7% 29.85 in 10.0 mi SE 6.9 mph - N/A   Clear
3:56 PM 90.0 °F 19.0 °F 7% 29.84 in 10.0 mi ESE 5.8 mph - N/A   Clear
4:56 PM 91.0 °F 19.0 °F 7% 29.83 in 10.0 mi Calm Calm - N/A   Clear
5:56 PM 88.0 °F 21.0 °F 9% 29.82 in 10.0 mi SE 6.9 mph - N/A   Clear
6:56 PM 82.9 °F 24.1 °F 12% 29.82 in 10.0 mi SW 8.1 mph - N/A   Clear
7:56 PM 80.1 °F 26.1 °F 14% 29.83 in 10.0 mi SW 13.8 mph - N/A   Clear
8:56 PM 78.1 °F 27.0 °F 15% 29.85 in 10.0 mi WSW 11.5 mph - N/A   Clear
9:56 PM 75.0 °F 28.0 °F 18% 29.86 in 10.0 mi West 10.4 mph - N/A   Clear
10:56 PM 73.0 °F 30.0 °F 20% 29.86 in 10.0 mi West 9.2 mph - N/A   Clear
11:56 PM 71.1 °F 30.0 °F 22% 29.86 in 10.0 mi NW 6.9 mph - N/A   Clear